DELTA 1 DEB, 21444

Orbit data source: Space-Track

DELTA 1 DEB, 21444 is space debris in SSO originally from a launch on Thu, 12 Jun 1975 UTC launched from the Air Force Western Test Range (AFWTR). Debris objects in space refer to the collection of defunct objects orbiting the Earth. Examples of debris include non-operational satellites, rocket bodies, and fragments generated from explosions, collisions, or faulty payload assembly.

Loading next visibility...
Identifier
21444, 1975-052EC
Orbit
SSO
Country
Flag of USUS
Related business
Manufacturer
Unknown
Mission
Spacecraft
Bus & Motor
Unknown
Mass
Unknown
Launch date (UTC)
1975-06-12 (51 years ago)
Launch vehicle
Unknown
Launch site
Air Force Western Test Range (AFWTR)
Object type
Payload
Rocket body
Debris
Shape & HBR
Unknown shape, 0.1 m
Radar Cross Section
Medium (>0.1 m² and <1 m²)

Expand to show TLE details & history
Last TLE update: 2 days ago

TLE from 2 days ago
0 DELTA 1 DEB
1 21444U 75052EC  26171.25950263  .00000295  00000-0  10034-2 0  9999
2 21444  99.6978  83.8151 0267295  49.8574  99.2778 12.94938093657287
Epoch: 2026-06-20T06:13Z
TLE epoch observation values (Epoch: 2026-06-20T06:13:41.027Z)
Latitude
27.46602°
Longitude
-93.01154°
Altitude
1,323.493 km
Speed
7.18 km/s
True Right ascension
17h 55m 32s
True Declination
27° 20' 09"
Sunlit
Object was in full shadow at epoch
Visualization orbit readout
Latitude
Unknown
Longitude
Unknown
Altitude
Unknown
Speed
Unknown
Apparent Right ascension
Unknown
Apparent Declination
Unknown
Sunlit
N/A
Visualization observer readout
Local Sidereal Time
07:35:47
Azimuth
Unknown
Elevation
Unknown
Doppler factor
Unknown
Orbital elements
Apogee altitude
1,484.041 km
Perigee altitude
1,074.679 km
Semi-major axis
7,657.497 km
Eccentricity
0.02673
Inclination
99.6978°
RAAN
83.8151°
Arg. of periapsis
49.8574°
True anomaly
102.28313°
Mean anomaly
99.2778°
Eccentric anomaly
100.78225°
Mean motion
3.23901 °/min
Orbital period
111.14 mins
BSTAR
0.0010034
Loading maneuver chart data...
Computing Atmospheric mass density...
Loading historical data...
Loading historical data...
Loading historical data...
Loading historical data...
Loading historical data...
Loading historical data...
Loading historical data...

Documentation

Showing up to 5 results
|